Location: Lake Hudson State Recreational Area
(41.8372°N, 84.2445°W)
Time: 20:44:54
(UTC-05:00)

OTV 5 (USA 277) - Visible Passes

Search period start: 19 February 2018 00:00
Search period end: 01 March 2018 00:00
Orbit: 404 x 417 km, 43.0° (Epoch: 07 September)

Date Brightness Start Highest point End Pass type
(mag) Time Alt. Az. Time Alt. Az. Time Alt. Az.
19 Feb ? 06:12:55 10° S 06:14:52 15° SE 06:16:49 10° ESE visible
21 Feb ? 06:07:29 15° SSW 06:09:45 31° SSE 06:12:44 10° E visible
22 Feb ? 05:19:05 22° SE 05:19:05 22° SE 05:21:26 10° E visible
23 Feb ? 06:03:20 29° SW 06:04:48 62° SSE 06:08:04 10° E visible
24 Feb ? 05:14:44 33° ESE 05:14:44 33° ESE 05:16:57 10° E visible
24 Feb ? 06:47:45 10° W 06:51:02 73° N 06:54:20 10° E visible
25 Feb ? 05:58:49 38° W 05:59:57 83° N 06:03:15 10° ENE visible
26 Feb ? 05:10:07 35° E 05:10:07 35° E 05:12:11 10° ENE visible
26 Feb ? 06:43:00 10° W 06:46:16 70° N 06:49:33 10° E visible
27 Feb ? 05:54:08 39° WNW 05:55:11 69° N 05:58:28 10° E visible
28 Feb ? 05:05:23 33° ENE 05:05:23 33° ENE 05:07:23 10° E visible
28 Feb ? 06:38:11 10° WNW 06:41:30 89° NNE 06:44:48 10° ESE visible
